TimeAKST,TemperatureF,Dew PointF,Humidity,Sea Level PressureIn,VisibilityMPH,Wind Direction,Wind SpeedMPH,Gust SpeedMPH,PrecipitationIn,Events,Conditions,WindDirDegrees,DateUTC
12:05 AM,33.8,32.0,93,28.98,10.0,Calm,Calm,-,N/A,,Overcast,0,2011-11-13 09:05:00
12:53 AM,34.0,32.0,92,28.98,10.0,ENE,3.5,-,N/A,,Overcast,70,2011-11-13 09:53:00
1:11 AM,33.8,33.8,100,28.99,7.0,Calm,Calm,-,0.00,Rain,Light Rain,0,2011-11-13 10:11:00
1:53 AM,33.1,32.0,96,28.99,5.0,NNE,5.8,-,0.03,Rain,Light Rain,20,2011-11-13 10:53:00
2:30 AM,37.4,33.8,87,28.99,10.0,SSW,13.8,23.0,0.01,,Overcast,200,2011-11-13 11:30:00
2:35 AM,35.6,33.8,93,28.99,10.0,SSW,17.3,23.0,0.01,,Overcast,210,2011-11-13 11:35:00
3:20 AM,35.6,33.8,93,29.03,4.0,SSW,13.8,26.5,0.01,Snow,Light Snow,200,2011-11-13 12:20:00
3:41 AM,37.4,32.0,81,29.01,9.0,SSW,21.9,26.5,0.03,,Overcast,210,2011-11-13 12:41:00
3:53 AM,36.0,33.1,89,29.02,10.0,SSW,26.5,-,0.03,,Overcast,210,2011-11-13 12:53:00
4:53 AM,37.0,34.0,89,29.05,10.0,SSW,18.4,24.2,N/A,,Overcast,200,2011-11-13 13:53:00
5:21 AM,37.4,33.8,87,29.06,10.0,SSW,18.4,24.2,N/A,,Mostly Cloudy,200,2011-11-13 14:21:00
5:30 AM,37.4,33.8,87,29.06,10.0,SSW,16.1,21.9,N/A,,Mostly Cloudy,210,2011-11-13 14:30:00
5:53 AM,37.9,33.1,83,29.08,10.0,SSW,15.0,-,N/A,,Overcast,200,2011-11-13 14:53:00
6:53 AM,37.0,33.1,86,29.10,10.0,Variable,5.8,17.3,N/A,,Overcast,0,2011-11-13 15:53:00
7:53 AM,37.0,33.1,86,29.12,10.0,SSW,9.2,18.4,N/A,,Overcast,200,2011-11-13 16:53:00
8:44 AM,37.4,33.8,87,29.13,6.0,SSW,15.0,-,0.01,Rain,Light Rain,200,2011-11-13 17:44:00
8:53 AM,37.0,34.0,89,29.13,8.0,South,9.2,20.7,0.01,Rain,Light Rain,190,2011-11-13 17:53:00
9:05 AM,37.4,33.8,87,29.13,10.0,SSW,15.0,20.7,0.00,Rain,Light Rain,210,2011-11-13 18:05:00
9:53 AM,35.1,33.1,92,29.15,10.0,Calm,Calm,-,0.01,,Overcast,0,2011-11-13 18:53:00
10:28 AM,37.4,33.8,87,29.15,10.0,SSE,8.1,-,N/A,,Overcast,150,2011-11-13 19:28:00
10:53 AM,37.0,33.1,86,29.16,7.0,Variable,6.9,-,0.00,,Overcast,0,2011-11-13 19:53:00
11:53 AM,37.0,34.0,89,29.18,8.0,South,9.2,23.0,0.01,Rain,Light Rain,180,2011-11-13 20:53:00
12:53 PM,35.1,33.1,92,29.21,6.0,Calm,Calm,-,0.00,Rain,Light Rain,0,2011-11-13 21:53:00
1:08 PM,35.6,30.2,81,29.21,2.5,ENE,10.4,-,0.00,Snow,Light Snow,60,2011-11-13 22:08:00
1:17 PM,35.6,30.2,81,29.21,1.8,Calm,Calm,-,0.01,Snow,Light Snow,0,2011-11-13 22:17:00
1:28 PM,35.6,30.2,81,29.22,1.2,SW,13.8,23.0,0.01,Snow,Light Snow,220,2011-11-13 22:28:00
1:33 PM,35.6,30.2,81,29.23,1.0,Variable,4.6,23.0,0.02,Snow,Light Snow,0,2011-11-13 22:33:00
1:40 PM,35.6,30.2,81,29.22,0.8,NE,10.4,17.3,0.02,Snow,Light Snow,40,2011-11-13 22:40:00
1:51 PM,33.8,28.4,81,29.22,1.0,ENE,8.1,17.3,0.03,Snow,Light Snow,70,2011-11-13 22:51:00
1:53 PM,34.0,28.9,82,29.23,1.2,East,5.8,17.3,0.03,Snow,Light Snow,90,2011-11-13 22:53:00
1:59 PM,33.8,30.2,87,29.23,2.0,Calm,Calm,-,0.00,Snow,Light Snow,0,2011-11-13 22:59:00
2:05 PM,33.8,30.2,87,29.23,1.5,Calm,Calm,-,0.00,Snow,Light Snow,0,2011-11-13 23:05:00
2:07 PM,33.8,30.2,87,29.24,0.8,Variable,4.6,-,0.01,Snow,Light Snow,0,2011-11-13 23:07:00
2:19 PM,33.8,30.2,87,29.25,1.8,Variable,4.6,-,0.02,Snow,Light Snow,0,2011-11-13 23:19:00
2:25 PM,33.8,30.2,87,29.25,2.0,Variable,5.8,-,0.02,Snow,Light Snow,0,2011-11-13 23:25:00
2:41 PM,33.8,30.2,87,29.26,0.8,Variable,4.6,-,0.03,Snow,Light Snow,0,2011-11-13 23:41:00
2:44 PM,32.0,30.2,93,29.27,0.2,Variable,3.5,-,0.04,Fog-Snow,Heavy Snow,0,2011-11-13 23:44:00
2:53 PM,33.1,30.0,89,29.27,0.2,Variable,4.6,-,0.05,Fog-Snow,Snow,0,2011-11-13 23:53:00
2:59 PM,32.0,30.2,93,29.27,0.8,North,3.5,-,0.00,Snow,Light Snow,360,2011-11-13 23:59:00
3:30 PM,30.2,28.4,93,29.29,1.2,NE,10.4,-,0.02,Snow,Light Snow,40,2011-11-14 00:30:00
3:53 PM,30.9,28.9,92,29.31,1.2,North,4.6,-,0.02,Snow,Light Snow,10,2011-11-14 00:53:00
4:19 PM,30.2,28.4,93,29.32,0.8,NE,11.5,19.6,0.02,Snow,Light Snow,40,2011-11-14 01:19:00
4:30 PM,30.2,28.4,93,29.32,1.0,NE,8.1,-,0.02,Snow,Light Snow,40,2011-11-14 01:30:00
4:45 PM,30.2,28.4,93,29.33,1.5,NNE,8.1,-,0.02,Snow,Light Snow,30,2011-11-14 01:45:00
4:53 PM,30.9,27.0,85,29.34,2.5,NE,9.2,-,0.02,Snow,Light Snow,50,2011-11-14 01:53:00
5:03 PM,30.2,26.6,86,29.35,1.8,NNE,8.1,-,0.00,Snow,Light Snow,30,2011-11-14 02:03:00
5:24 PM,30.2,26.6,86,29.35,1.2,NE,12.7,17.3,0.00,Snow,Light Snow,40,2011-11-14 02:24:00
5:33 PM,30.2,26.6,86,29.36,1.8,NNE,11.5,18.4,0.01,Snow,Light Snow,20,2011-11-14 02:33:00
5:48 PM,30.2,26.6,86,29.36,2.0,NNE,11.5,-,0.01,Snow,Light Snow,30,2011-11-14 02:48:00
5:53 PM,30.9,25.0,79,29.37,2.5,NNE,11.5,-,0.01,Snow,Light Snow,20,2011-11-14 02:53:00
6:01 PM,30.2,24.8,80,29.37,4.0,NNE,9.2,18.4,0.00,Snow,Light Snow,20,2011-11-14 03:01:00
6:11 PM,30.2,24.8,80,29.38,5.0,NE,9.2,17.3,0.00,Snow,Light Snow,40,2011-11-14 03:11:00
6:53 PM,32.0,24.1,73,29.40,10.0,North,6.9,-,0.00,,Overcast,10,2011-11-14 03:53:00
7:53 PM,30.9,23.0,72,29.44,9.0,North,6.9,-,0.00,,Overcast,10,2011-11-14 04:53:00
8:16 PM,30.2,23.0,75,29.45,5.0,North,8.1,-,0.00,Snow,Light Snow,10,2011-11-14 05:16:00
8:43 PM,30.2,21.2,69,29.46,9.0,NNE,10.4,-,0.00,,Overcast,20,2011-11-14 05:43:00
8:53 PM,30.9,21.9,69,29.47,10.0,NNE,8.1,-,0.00,,Overcast,20,2011-11-14 05:53:00
9:53 PM,30.9,21.0,67,29.49,10.0,North,8.1,-,N/A,,Overcast,10,2011-11-14 06:53:00
10:53 PM,30.0,21.9,72,29.51,10.0,Variable,5.8,-,N/A,,Overcast,0,2011-11-14 07:53:00
11:53 PM,30.9,19.0,61,29.53,10.0,North,10.4,-,N/A,,Overcast,10,2011-11-14 08:53:00